Weather in Voskresenskoye Novoye

Russia / Ivanovo Oblast     57°04′11″N   42°30′10″E
temp.,
°C
wind,
m/s
gust,
m/s
humid.,
%
clouds,
%
prec.,
mm/h
press.,
hPa
HPBL,
m
28 september, tue
tue2800:00+5ene5987100 0.0 1026738
03:00+4ne4109113 0.1 1027462
06:00+2ne39945 0.0 1029336
09:00+5ene47775 0.0 1031560
12:00+8ne4558100 0.0 1031898
15:00+9ne45525 0.0 10311039
18:00+5n22718 0.0 103218
21:00+4nne22775 0.0 103326
29 september, wed
wed2900:00+3n228160 0.0 103420
03:00+2n22855 0.0 103435
06:00+1n239161 0.0 103455
09:00+6nne24725 0.0 1035314
12:00+10nne245615 0.0 1034862
15:00+11nne236099 0.0 1033871
18:00+6nne118397 0.0 103310
21:00+7n2383100 0.0 103373
30 september, thu
thu3000:00+7nnw1182100 0.0 103423
03:00+5nw129148 0.0 103411
06:00+7wnw2386100 0.0 103492
09:00+9nnw238289 0.0 1034226
12:00+13nw236823 0.0 1033747
15:00+13nw236787 0.0 1033876
18:00+10wnw248645 0.0 103270
21:00+8nw34925 0.0 103384
1 october, fri
fri100:00+8nw23955 0.0 103360
03:00+7nw249673 0.0 103370
06:00+7nw25975 0.0 103394
09:00+10nw35835 0.0 1033297
12:00+14nw336723 0.0 1033773
15:00+15wnw346430 0.0 1032943
18:00+10wnw23845 0.0 103240
21:00+9wnw229036 0.0 103334
2 october, sat
sat200:00+8wnw22916 0.0 103325
03:00+7w229389 0.0 103329
06:00+6w229426 0.0 103328
09:00+10w237743 0.0 1033262
12:00+13wsw345928 0.0 1033793
15:00+14wsw34575 0.0 10321023
18:00+10sw22785 0.0 103214
21:00+8sw22835 0.0 103328